Time,TemperatureF,DewpointF,PressureIn,WindDirection,WindDirectionDegrees,WindSpeedMPH,WindSpeedGustMPH,Humidity,HourlyPrecipIn,Conditions,Clouds,dailyrainin,SoftwareType,DateUTC
2013-03-12 00:02:00,51.0,48.0,-100.00,West,265,1.0,2.0,91,0.00,,,-99.99,,2013-03-12 04:02:00,
2013-03-12 00:13:00,51.0,48.0,-100.00,WSW,250,1.0,1.0,91,0.00,,,-99.99,,2013-03-12 04:13:00,
2013-03-12 00:22:00,51.0,48.0,-100.00,WSW,250,1.0,1.0,91,0.00,,,-99.99,,2013-03-12 04:22:00,
2013-03-12 00:32:00,51.0,48.0,-100.00,West,280,0.0,0.0,91,0.00,,,-99.99,,2013-03-12 04:32:00,
2013-03-12 00:43:00,51.0,48.0,-100.00,South,175,0.0,1.0,91,0.00,,,-99.99,,2013-03-12 04:43:00,
2013-03-12 00:52:00,51.0,48.0,-100.00,South,175,0.0,1.0,91,0.00,,,-99.99,,2013-03-12 04:52:00,
2013-03-12 01:02:00,51.0,48.0,-100.00,ESE,110,0.0,1.0,91,0.00,,,-99.99,,2013-03-12 05:02:00,
2013-03-12 01:12:00,51.0,48.0,-100.00,SSE,150,1.0,3.0,91,0.00,,,-99.99,,2013-03-12 05:12:00,
2013-03-12 01:22:00,51.0,48.0,-100.00,SSE,150,1.0,3.0,91,0.00,,,-99.99,,2013-03-12 05:22:00,
2013-03-12 01:32:00,51.0,48.0,-100.00,SW,225,0.0,1.0,91,0.03,,,-99.99,,2013-03-12 05:32:00,
2013-03-12 01:42:00,51.0,48.0,-100.00,West,265,1.0,2.0,91,0.00,,,-99.99,,2013-03-12 05:42:00,
2013-03-12 01:52:00,51.0,48.0,-100.00,West,265,1.0,2.0,91,0.00,,,-99.99,,2013-03-12 05:52:00,
2013-03-12 02:02:00,51.0,48.0,-100.00,West,270,3.0,4.0,91,0.00,,,-99.99,,2013-03-12 06:02:00,
2013-03-12 02:12:00,51.0,48.0,-100.00,West,270,3.0,4.0,91,0.00,,,-99.99,,2013-03-12 06:12:00,
2013-03-12 02:22:00,51.0,48.0,-100.00,West,270,3.0,4.0,91,0.00,,,-99.99,,2013-03-12 06:22:00,
2013-03-12 02:32:00,50.0,48.0,-100.00,WSW,255,1.0,1.0,92,0.00,,,-99.99,,2013-03-12 06:32:00,
2013-03-12 02:42:00,51.0,48.0,-100.00,West,265,3.0,4.0,92,0.00,,,-99.99,,2013-03-12 06:42:00,
2013-03-12 02:52:00,51.0,48.0,-100.00,West,265,3.0,4.0,92,0.00,,,-99.99,,2013-03-12 06:52:00,
2013-03-12 03:02:00,51.0,48.0,-100.00,South,180,2.0,4.0,92,0.01,,,-99.99,,2013-03-12 07:02:00,
2013-03-12 03:12:00,51.0,48.0,-100.00,West,270,1.0,2.0,92,0.00,,,-99.99,,2013-03-12 07:12:00,
2013-03-12 03:22:00,51.0,48.0,-100.00,West,270,1.0,2.0,92,0.00,,,-99.99,,2013-03-12 07:22:00,
2013-03-12 03:32:00,51.0,48.0,-100.00,WSW,255,1.0,2.0,92,0.00,,,-99.99,,2013-03-12 07:32:00,
2013-03-12 03:42:00,51.0,49.0,-100.00,WSW,245,0.0,0.0,92,0.04,,,-99.99,,2013-03-12 07:42:00,
2013-03-12 03:52:00,51.0,49.0,-100.00,WSW,245,0.0,0.0,92,0.04,,,-99.99,,2013-03-12 07:52:00,
2013-03-12 04:02:00,52.0,50.0,-100.00,SW,225,1.0,2.0,92,0.00,,,-99.99,,2013-03-12 08:02:00,
2013-03-12 04:13:00,53.0,50.0,-100.00,South,180,1.0,2.0,92,0.00,,,-99.99,,2013-03-12 08:13:00,
2013-03-12 04:22:00,53.0,50.0,-100.00,South,180,1.0,2.0,92,0.00,,,-99.99,,2013-03-12 08:22:00,
2013-03-12 04:33:00,53.0,50.0,-100.00,SSW,200,3.0,5.0,92,0.00,,,-99.99,,2013-03-12 08:33:00,
2013-03-12 04:42:00,53.0,50.0,-100.00,SSE,165,2.0,4.0,92,0.00,,,-99.99,,2013-03-12 08:42:00,
2013-03-12 04:52:00,53.0,50.0,-100.00,SSE,165,2.0,4.0,92,0.00,,,-99.99,,2013-03-12 08:52:00,
2013-03-12 05:03:00,53.0,51.0,-100.00,West,260,6.0,9.0,92,0.13,,,-99.99,,2013-03-12 09:03:00,
2013-03-12 05:12:00,52.0,50.0,-100.00,West,265,6.0,8.0,92,0.03,,,-99.99,,2013-03-12 09:12:00,
2013-03-12 05:22:00,52.0,50.0,-100.00,West,265,6.0,8.0,92,0.03,,,-99.99,,2013-03-12 09:22:00,
2013-03-12 05:33:00,52.0,50.0,-100.00,West,270,6.0,7.0,93,0.01,,,-99.99,,2013-03-12 09:33:00,
2013-03-12 05:42:00,48.0,46.0,-100.00,WNW,285,14.0,16.0,93,0.00,,,-99.99,,2013-03-12 09:42:00,
2013-03-12 05:52:00,48.0,46.0,-100.00,WNW,285,14.0,16.0,93,0.00,,,-99.99,,2013-03-12 09:52:00,
2013-03-12 06:02:00,47.0,44.0,-100.00,West,280,15.0,19.0,92,0.00,,,-99.99,,2013-03-12 10:02:00,
2013-03-12 06:12:00,47.0,44.0,-100.00,West,275,14.0,19.0,91,0.00,,,-99.99,,2013-03-12 10:12:00,
2013-03-12 06:22:00,47.0,44.0,-100.00,West,275,14.0,19.0,91,0.00,,,-99.99,,2013-03-12 10:22:00,
2013-03-12 06:32:00,47.0,44.0,-100.00,West,275,12.0,16.0,89,0.02,,,-99.99,,2013-03-12 10:32:00,
2013-03-12 06:42:00,47.0,43.0,-100.00,West,275,15.0,18.0,88,0.01,,,-99.99,,2013-03-12 10:42:00,
2013-03-12 06:52:00,47.0,43.0,-100.00,West,275,15.0,18.0,88,0.01,,,-99.99,,2013-03-12 10:52:00,
2013-03-12 07:02:00,46.0,43.0,-100.00,West,270,11.0,14.0,90,0.02,,,-99.99,,2013-03-12 11:02:00,
2013-03-12 07:12:00,45.0,43.0,-100.00,West,270,14.0,17.0,90,0.01,,,-99.99,,2013-03-12 11:12:00,
2013-03-12 07:22:00,45.0,43.0,-100.00,West,270,14.0,17.0,90,0.01,,,-99.99,,2013-03-12 11:22:00,
2013-03-12 07:32:00,45.0,42.0,-100.00,West,265,10.0,12.0,90,0.04,,,-99.99,,2013-03-12 11:32:00,
2013-03-12 07:42:00,45.0,42.0,-100.00,West,270,11.0,13.0,90,0.00,,,-99.99,,2013-03-12 11:42:00,
2013-03-12 07:52:00,45.0,42.0,-100.00,West,270,11.0,13.0,90,0.00,,,-99.99,,2013-03-12 11:52:00,
2013-03-12 08:03:00,45.0,42.0,-100.00,West,275,11.0,14.0,89,0.00,,,-99.99,,2013-03-12 12:03:00,
2013-03-12 08:12:00,44.0,41.0,-100.00,West,265,5.0,9.0,89,0.00,,,-99.99,,2013-03-12 12:12:00,
2013-03-12 08:22:00,44.0,41.0,-100.00,West,265,5.0,9.0,89,0.00,,,-99.99,,2013-03-12 12:22:00,
2013-03-12 08:32:00,44.0,41.0,-100.00,West,270,9.0,14.0,89,0.10,,,-99.99,,2013-03-12 12:32:00,
2013-03-12 08:42:00,43.0,41.0,-100.00,West,275,6.0,8.0,90,0.05,,,-99.99,,2013-03-12 12:42:00,
2013-03-12 08:52:00,43.0,41.0,-100.00,West,275,6.0,8.0,90,0.05,,,-99.99,,2013-03-12 12:52:00,
2013-03-12 09:02:00,43.0,40.0,-100.00,SW,225,4.0,7.0,90,0.01,,,-99.99,,2013-03-12 13:02:00,
2013-03-12 09:12:00,43.0,40.0,-100.00,West,275,9.0,11.0,88,0.02,,,-99.99,,2013-03-12 13:12:00,
2013-03-12 09:22:00,43.0,40.0,-100.00,West,275,9.0,11.0,88,0.02,,,-99.99,,2013-03-12 13:22:00,
2013-03-12 09:32:00,43.0,40.0,-100.00,SSE,165,2.0,4.0,88,0.00,,,-99.99,,2013-03-12 13:32:00,
2013-03-12 09:43:00,43.0,40.0,-100.00,West,265,3.0,5.0,88,0.00,,,-99.99,,2013-03-12 13:43:00,
2013-03-12 09:52:00,43.0,40.0,-100.00,West,265,3.0,5.0,88,0.00,,,-99.99,,2013-03-12 13:52:00,
2013-03-12 10:02:00,43.0,40.0,-100.00,WSW,240,5.0,7.0,88,0.00,,,-99.99,,2013-03-12 14:02:00,
2013-03-12 10:12:00,42.0,39.0,-100.00,SSW,200,3.0,7.0,88,0.00,,,-99.99,,2013-03-12 14:12:00,
2013-03-12 10:22:00,42.0,39.0,-100.00,SSW,200,3.0,7.0,88,0.00,,,-99.99,,2013-03-12 14:22:00,
2013-03-12 10:33:00,42.0,39.0,-100.00,West,265,6.0,14.0,88,0.00,,,-99.99,,2013-03-12 14:33:00,
2013-03-12 10:42:00,42.0,39.0,-100.00,West,280,10.0,13.0,88,0.00,,,-99.99,,2013-03-12 14:42:00,
2013-03-12 10:53:00,42.0,39.0,-100.00,West,280,10.0,13.0,88,0.00,,,-99.99,,2013-03-12 14:53:00,
2013-03-12 11:02:00,42.0,39.0,-100.00,WNW,300,11.0,16.0,88,0.00,,,-99.99,,2013-03-12 15:02:00,
2013-03-12 11:13:00,42.0,38.0,-100.00,West,260,4.0,7.0,87,0.00,,,-99.99,,2013-03-12 15:13:00,
2013-03-12 11:22:00,42.0,38.0,-100.00,West,260,4.0,7.0,87,0.00,,,-99.99,,2013-03-12 15:22:00,
2013-03-12 11:32:00,44.0,40.0,-100.00,WSW,245,4.0,8.0,85,0.00,,,-99.99,,2013-03-12 15:32:00,
2013-03-12 11:42:00,44.0,38.0,-100.00,NW,310,9.0,11.0,82,0.00,,,-99.99,,2013-03-12 15:42:00,
2013-03-12 11:52:00,44.0,38.0,-100.00,NW,310,9.0,11.0,82,0.00,,,-99.99,,2013-03-12 15:52:00,
2013-03-12 12:03:00,43.0,37.0,-100.00,South,190,3.0,10.0,80,0.00,,,-99.99,,2013-03-12 16:03:00,
2013-03-12 12:12:00,43.0,36.0,-100.00,NW,305,5.0,8.0,78,0.00,,,-99.99,,2013-03-12 16:12:00,
2013-03-12 12:22:00,43.0,36.0,-100.00,NW,305,5.0,8.0,78,0.00,,,-99.99,,2013-03-12 16:22:00,
2013-03-12 12:33:00,42.0,35.0,-100.00,WNW,290,9.0,11.0,76,0.00,,,-99.99,,2013-03-12 16:33:00,
2013-03-12 12:43:00,42.0,35.0,-100.00,WNW,300,7.0,11.0,75,0.00,,,-99.99,,2013-03-12 16:43:00,
2013-03-12 12:52:00,42.0,35.0,-100.00,WNW,300,7.0,11.0,75,0.00,,,-99.99,,2013-03-12 16:52:00,
2013-03-12 13:03:00,43.0,35.0,-100.00,WNW,300,4.0,6.0,75,0.00,,,-99.99,,2013-03-12 17:03:00,
2013-03-12 13:13:00,42.0,34.0,-100.00,SW,230,8.0,12.0,73,0.00,,,-99.99,,2013-03-12 17:13:00,
2013-03-12 13:22:00,42.0,34.0,-100.00,SW,230,8.0,12.0,73,0.00,,,-99.99,,2013-03-12 17:22:00,
2013-03-12 13:34:00,42.0,34.0,-100.00,NW,310,9.0,12.0,73,0.00,,,-99.99,,2013-03-12 17:34:00,
2013-03-12 13:44:00,42.0,33.0,-100.00,NW,320,7.0,11.0,70,0.00,,,-99.99,,2013-03-12 17:44:00,
2013-03-12 13:53:00,42.0,33.0,-100.00,NW,320,7.0,11.0,70,0.00,,,-99.99,,2013-03-12 17:53:00,
2013-03-12 14:03:00,42.0,33.0,-100.00,West,275,7.0,10.0,72,0.00,,,-99.99,,2013-03-12 18:03:00,
2013-03-12 14:13:00,42.0,33.0,-100.00,West,280,3.0,6.0,72,0.00,,,-99.99,,2013-03-12 18:13:00,
2013-03-12 14:23:00,42.0,33.0,-100.00,West,280,3.0,6.0,72,0.00,,,-99.99,,2013-03-12 18:23:00,
2013-03-12 14:33:00,41.0,31.0,-100.00,South,190,7.0,10.0,67,0.00,,,-99.99,,2013-03-12 18:33:00,
2013-03-12 14:42:00,41.0,31.0,-100.00,WSW,250,6.0,11.0,66,0.00,,,-99.99,,2013-03-12 18:42:00,
2013-03-12 14:53:00,41.0,31.0,-100.00,West,275,3.0,6.0,67,0.00,,,-99.99,,2013-03-12 18:53:00,
2013-03-12 15:04:00,41.0,31.0,-100.00,West,275,3.0,6.0,67,0.00,,,-99.99,,2013-03-12 19:04:00,
2013-03-12 15:13:00,41.0,31.0,-100.00,South,180,2.0,6.0,67,0.00,,,-99.99,,2013-03-12 19:13:00,
2013-03-12 15:23:00,41.0,31.0,-100.00,NW,305,8.0,12.0,68,0.00,,,-99.99,,2013-03-12 19:23:00,
2013-03-12 15:33:00,41.0,31.0,-100.00,NW,305,8.0,12.0,68,0.00,,,-99.99,,2013-03-12 19:33:00,
2013-03-12 15:43:00,40.0,31.0,-100.00,West,260,9.0,19.0,68,0.00,,,-99.99,,2013-03-12 19:43:00,
2013-03-12 15:53:00,40.0,30.0,-100.00,West,275,11.0,18.0,66,0.00,,,-99.99,,2013-03-12 19:53:00,
2013-03-12 16:02:00,40.0,30.0,-100.00,West,275,11.0,18.0,66,0.00,,,-99.99,,2013-03-12 20:02:00,
2013-03-12 16:12:00,41.0,30.0,-100.00,West,260,6.0,10.0,65,0.00,,,-99.99,,2013-03-12 20:12:00,
2013-03-12 16:23:00,41.0,30.0,-100.00,West,260,6.0,10.0,65,0.00,,,-99.99,,2013-03-12 20:23:00,
2013-03-12 16:33:00,40.0,29.0,-100.00,WNW,285,11.0,14.0,64,0.00,,,-99.99,,2013-03-12 20:33:00,
2013-03-12 16:42:00,41.0,29.0,-100.00,West,270,3.0,9.0,64,0.00,,,-99.99,,2013-03-12 20:42:00,
2013-03-12 16:52:00,41.0,28.0,-100.00,WNW,290,6.0,13.0,60,0.00,,,-99.99,,2013-03-12 20:52:00,
2013-03-12 17:03:00,41.0,28.0,-100.00,WNW,290,6.0,13.0,60,0.00,,,-99.99,,2013-03-12 21:03:00,
2013-03-12 17:13:00,41.0,28.0,-100.00,West,275,9.0,12.0,60,0.00,,,-99.99,,2013-03-12 21:13:00,
2013-03-12 17:23:00,41.0,28.0,-100.00,West,275,9.0,12.0,60,0.00,,,-99.99,,2013-03-12 21:23:00,
2013-03-12 17:33:00,41.0,28.0,-100.00,WSW,250,4.0,7.0,61,0.00,,,-99.99,,2013-03-12 21:33:00,
2013-03-12 17:43:00,40.0,27.0,-100.00,SSE,160,6.0,11.0,59,0.00,,,-99.99,,2013-03-12 21:43:00,
2013-03-12 17:52:00,40.0,27.0,-100.00,SSE,160,6.0,11.0,59,0.00,,,-99.99,,2013-03-12 21:52:00,
2013-03-12 18:03:00,41.0,27.0,-100.00,NNE,15,2.0,6.0,59,0.00,,,-99.99,,2013-03-12 22:03:00,
2013-03-12 18:12:00,40.0,27.0,-100.00,South,170,3.0,4.0,59,0.00,,,-99.99,,2013-03-12 22:12:00,
2013-03-12 18:22:00,40.0,27.0,-100.00,SSW,210,1.0,2.0,60,0.00,,,-99.99,,2013-03-12 22:22:00,
2013-03-12 18:33:00,40.0,27.0,-100.00,SSW,210,1.0,2.0,60,0.00,,,-99.99,,2013-03-12 22:33:00,
2013-03-12 18:43:00,40.0,27.0,-100.00,South,190,2.0,7.0,62,0.00,,,-99.99,,2013-03-12 22:43:00,
2013-03-12 18:52:00,40.0,28.0,-100.00,SSW,195,3.0,6.0,64,0.00,,,-99.99,,2013-03-12 22:52:00,
2013-03-12 19:03:00,40.0,28.0,-100.00,SSW,195,3.0,6.0,64,0.00,,,-99.99,,2013-03-12 23:03:00,
2013-03-12 19:12:00,39.0,28.0,-100.00,SW,230,4.0,8.0,65,0.00,,,-99.99,,2013-03-12 23:12:00,
2013-03-12 19:22:00,39.0,28.0,-100.00,SW,230,4.0,8.0,65,0.00,,,-99.99,,2013-03-12 23:22:00,
2013-03-12 19:34:00,39.0,27.0,-100.00,WSW,240,4.0,7.0,63,0.00,,,-99.99,,2013-03-12 23:34:00,
2013-03-12 19:43:00,38.0,27.0,-100.00,West,265,5.0,8.0,64,0.00,,,-99.99,,2013-03-12 23:43:00,
2013-03-12 19:52:00,38.0,27.0,-100.00,West,265,5.0,8.0,64,0.00,,,-99.99,,2013-03-12 23:52:00,
2013-03-12 20:03:00,38.0,27.0,-100.00,West,265,9.0,17.0,64,0.00,,,-99.99,,2013-03-13 00:03:00,
2013-03-12 20:13:00,38.0,26.0,-100.00,West,265,7.0,12.0,61,0.00,,,-99.99,,2013-03-13 00:13:00,
2013-03-12 20:23:00,38.0,26.0,-100.00,West,265,7.0,12.0,61,0.00,,,-99.99,,2013-03-13 00:23:00,
2013-03-12 20:33:00,38.0,26.0,-100.00,South,175,4.0,8.0,62,0.00,,,-99.99,,2013-03-13 00:33:00,
2013-03-12 20:42:00,38.0,26.0,-100.00,WSW,255,7.0,14.0,60,0.00,,,-99.99,,2013-03-13 00:42:00,
2013-03-12 20:53:00,38.0,24.0,-100.00,West,280,9.0,13.0,57,0.00,,,-99.99,,2013-03-13 00:53:00,
2013-03-12 21:03:00,38.0,24.0,-100.00,West,280,9.0,13.0,57,0.00,,,-99.99,,2013-03-13 01:03:00,
2013-03-12 21:13:00,38.0,24.0,-100.00,WNW,290,7.0,8.0,56,0.00,,,-99.99,,2013-03-13 01:13:00,
2013-03-12 21:22:00,38.0,24.0,-100.00,WNW,290,7.0,8.0,56,0.00,,,-99.99,,2013-03-13 01:22:00,
2013-03-12 21:33:00,38.0,25.0,-100.00,SSW,200,3.0,8.0,59,0.00,,,-99.99,,2013-03-13 01:33:00,
2013-03-12 21:43:00,38.0,25.0,-100.00,North,350,2.0,4.0,58,0.00,,,-99.99,,2013-03-13 01:43:00,
2013-03-12 21:53:00,38.0,25.0,-100.00,North,350,2.0,4.0,58,0.00,,,-99.99,,2013-03-13 01:53:00,
2013-03-12 22:03:00,38.0,24.0,-100.00,WSW,255,6.0,9.0,56,0.00,,,-99.99,,2013-03-13 02:03:00,
2013-03-12 22:12:00,38.0,24.0,-100.00,SSW,200,2.0,4.0,56,0.00,,,-99.99,,2013-03-13 02:12:00,
2013-03-12 22:22:00,38.0,24.0,-100.00,SSW,200,2.0,4.0,56,0.00,,,-99.99,,2013-03-13 02:22:00,
2013-03-12 22:32:00,38.0,24.0,-100.00,East,90,2.0,3.0,56,0.00,,,-99.99,,2013-03-13 02:32:00,
2013-03-12 22:43:00,38.0,23.0,-100.00,SW,215,5.0,9.0,55,0.00,,,-99.99,,2013-03-13 02:43:00,
2013-03-12 22:52:00,38.0,23.0,-100.00,SW,215,5.0,9.0,55,0.00,,,-99.99,,2013-03-13 02:52:00,
2013-03-12 23:02:00,38.0,22.0,-100.00,West,260,10.0,19.0,52,0.00,,,-99.99,,2013-03-13 03:02:00,
2013-03-12 23:12:00,38.0,21.0,-100.00,SW,225,11.0,17.0,51,0.00,,,-99.99,,2013-03-13 03:12:00,
2013-03-12 23:22:00,38.0,21.0,-100.00,SW,225,11.0,17.0,51,0.00,,,-99.99,,2013-03-13 03:22:00,
2013-03-12 23:32:00,38.0,21.0,-100.00,West,270,9.0,12.0,51,0.00,,,-99.99,,2013-03-13 03:32:00,
2013-03-12 23:42:00,38.0,20.0,-100.00,SW,235,9.0,18.0,49,0.00,,,-99.99,,2013-03-13 03:42:00,
2013-03-12 23:52:00,38.0,20.0,-100.00,West,270,11.0,15.0,49,0.00,,,-99.99,,2013-03-13 03:52:00,